Photometre #849[NE_1.6_Dp] Portglenone_MO AOT

File : 20220926_849.hum

26/09/2022,07:20:35,TEMP=9.4,BA=5.68,STAT.A,ExtBa=12.30
26/09/2022,07:25:09,TEMP=9.5,BA=5.68,STAT.A,ExtBa=12.20
26/09/2022,07:30:30,TEMP=9.6,BA=5.68,STAT.A,ExtBa=12.20
26/09/2022,07:36:53,TEMP=9.6,BA=5.68,STAT.A,ExtBa=12.30
26/09/2022,07:44:38,TEMP=9.7,BA=5.68,STAT.A,ExtBa=12.20
26/09/2022,07:54:14,TEMP=9.9,BA=5.68,STAT.A,ExtBa=12.30
26/09/2022,08:06:31,TEMP=10.3,BA=5.68,STAT.B,ExtBa=12.30
26/09/2022,08:12:26,TEMP=10.5,BA=5.68,STAT.A,ExtBa=12.20
26/09/2022,08:19:07,TEMP=10.7,BA=5.68,STAT.A,ExtBa=12.20
26/09/2022,08:26:44,TEMP=10.8,BA=5.64,STAT.A,ExtBa=12.20
26/09/2022,08:35:29,TEMP=11.1,BA=5.68,STAT.A,ExtBa=12.20
26/09/2022,08:45:42,TEMP=11.4,BA=5.68,STAT.C,ExtBa=12.20
26/09/2022,08:59:52,TEMP=12.9,BA=5.60,STAT.A,ExtBa=12.10
26/09/2022,09:12:29,TEMP=12.2,BA=5.68,STAT.A,ExtBa=12.20
26/09/2022,09:17:54,TEMP=12.4,BA=5.68,STAT.F,ExtBa=12.20
26/09/2022,09:32:12,TEMP=14.0,BA=5.60,STAT.b=1.0
26/09/2022,09:33:10,TEMP=14.0,BA=5.60,STAT.D,ExtBa=12.10
26/09/2022,09:47:52,TEMP=13.4,BA=5.64,STAT.D,ExtBa=12.20
26/09/2022,10:02:53,TEMP=14.0,BA=5.64,STAT.D,ExtBa=12.20
26/09/2022,10:17:54,TEMP=14.0,BA=5.64,STAT.F,ExtBa=12.20
26/09/2022,10:32:53,TEMP=13.6,BA=5.64,STAT.D,ExtBa=12.20
26/09/2022,10:47:53,TEMP=14.4,BA=5.64,STAT.D,ExtBa=12.20
26/09/2022,11:02:53,TEMP=14.5,BA=5.64,STAT.D,ExtBa=12.20
26/09/2022,11:17:55,TEMP=13.3,BA=5.64,STAT.F,ExtBa=12.20
26/09/2022,11:32:53,TEMP=14.4,BA=5.56,STAT.D,ExtBa=12.10
26/09/2022,11:47:53,TEMP=12.8,BA=5.64,STAT.D,ExtBa=12.20
26/09/2022,12:02:53,TEMP=12.4,BA=5.64,STAT.D,ExtBa=12.20
26/09/2022,12:17:56,TEMP=14.0,BA=5.64,STAT.F,ExtBa=12.20
26/09/2022,12:32:53,TEMP=12.3,BA=5.64,STAT.D,ExtBa=12.20
26/09/2022,12:47:53,TEMP=11.7,BA=5.64,STAT.D,ExtBa=12.20
26/09/2022,13:02:53,TEMP=12.8,BA=5.64,STAT.D,ExtBa=12.20
26/09/2022,13:17:56,TEMP=12.9,BA=5.64,STAT.F,ExtBa=12.20
26/09/2022,13:32:53,TEMP=12.8,BA=5.64,STAT.D,ExtBa=12.20
26/09/2022,13:47:54,TEMP=13.3,BA=5.64,STAT.D,ExtBa=12.20
26/09/2022,14:02:53,TEMP=12.2,BA=5.64,STAT.D,ExtBa=12.20
26/09/2022,14:17:54,TEMP=12.6,BA=5.64,STAT.F,ExtBa=12.20
26/09/2022,14:32:52,TEMP=13.0,BA=5.64,STAT.D,ExtBa=12.20
26/09/2022,14:47:54,TEMP=12.9,BA=5.64,STAT.D,ExtBa=12.20
26/09/2022,15:02:52,TEMP=11.2,BA=5.64,STAT.D,ExtBa=12.20
26/09/2022,15:17:54,TEMP=10.6,BA=5.64,STAT.F,ExtBa=12.20
26/09/2022,15:23:19,TEMP=10.6,BA=5.64,STAT.A,ExtBa=12.20
26/09/2022,15:38:00,TEMP=10.7,BA=5.64,STAT.A,ExtBa=12.20
26/09/2022,15:50:06,TEMP=11.0,BA=5.60,STAT.C,ExtBa=12.20
26/09/2022,16:00:19,TEMP=11.1,BA=5.64,STAT.A,ExtBa=12.20
26/09/2022,16:09:04,TEMP=11.2,BA=5.64,STAT.A,ExtBa=12.20
26/09/2022,16:16:41,TEMP=11.5,BA=5.60,STAT.A,ExtBa=12.20
26/09/2022,16:23:22,TEMP=11.9,BA=5.64,STAT.A,ExtBa=12.20
26/09/2022,16:29:17,TEMP=12.2,BA=5.64,STAT.B,ExtBa=12.20
26/09/2022,16:41:32,TEMP=12.0,BA=5.64,STAT.A,ExtBa=12.20
26/09/2022,16:51:10,TEMP=10.9,BA=5.64,STAT.A,ExtBa=12.20
26/09/2022,16:58:54,TEMP=10.5,BA=5.64,STAT.A,ExtBa=12.20
26/09/2022,17:05:16,TEMP=10.3,BA=5.60,STAT.A,ExtBa=12.20
26/09/2022,17:10:37,TEMP=10.3,BA=5.68,STAT.A,ExtBa=12.20
26/09/2022,17:15:11,TEMP=10.3,BA=5.68,STAT.A,ExtBa=12.20